Jordan, MT

6:24 AM MDT on June 29, 2017 (GMT -0600)
Wokal-Glasgow International | | Change Station
Active Advisory: Lake Wind Advisory

Elev 2293 ft 48.21 °N, 106.61 °W | Updated 31 minutes ago

Partly Cloudy
Partly Cloudy
51 °F
Feels Like 51 °F
N
14
Wind Variable Wind from NNW

Today
High -- | Low -- °F
--% Chance of Precip.
Yesterday
High -- | Low -- °F
Precip. -- in
Pressure 29.83 in
Visibility 10.0 miles
Clouds Clear
Dew Point 45 °F
Humidity 80%
Rainfall 0.00 in
Snow Depth Not available.
5:14 AM 9:08 PM
Waxing Crescent, 35% visible
METAR KGGW 291153Z AUTO 33012KT 10SM CLR 11/07 A2984 RMK AO2 SLP100 70001 T01060072 10222 20094 53016
Pressure 29.83 in
Visibility 10.0 miles
Clouds Clear
Dew Point 45 °F
Humidity 80%
Rainfall 0.00 in
Snow Depth Not available.
5:14 AM 9:08 PM
Waxing Crescent, 35% visible
METAR KGGW 291153Z AUTO 33012KT 10SM CLR 11/07 A2984 RMK AO2 SLP100 70001 T01060072 10222 20094 53016

Get Your Daily Forecast Email!

Thanks for signing up!

Be on the lookout for a verification email in your inbox.

You'll start receiving severe weather alerts in your inbox..

×

10-Day Weather Forecast

Almanac

Astronomy

Jun. 29, 2017 Rise Set
Actual Time
Civil Twilight
Nautical Twilight
Astronomical Twilight
Moon
Length of Visible Light
Length of Day
Tomorrow will be .
, % of the Moon is Illuminated

Today's Extremes

State Highs State Lows

Community

WunderPhotos

Category 6

Welcome to Category 6. This is the collective home for Weather Underground's featured writeups by Dr. Jeff Masters (right), Bob Henson (left), Chris Burt, and other regular contributors.

Nearby

Air Quality

  Air Quality AQ Index Pollutant
Not available.

Snow Depth

Station Depth Elevation

Earthquake Activity

City Distance Mag. Time & Date
Minimum magnitude displayed is 2.5.

Coastal Water Temperatures

Place Temperature

Stations

Nearby Weather Stations

Station Location Temp. Windchill Dew Point Humidity Wind Precip. Elev Updated Type
                   

Watches & Warnings

Lake Wind Advisory
Issued: 3:15 AM MDT Jun. 29, 2017 – National Weather Service

... Lake Wind Advisory remains in effect from 9 am this morning to
9 PM MDT this evening for Fort Peck Lake...

* winds... northwest 15 to 25 mph with gusts up to 30 mph.

* Timing... winds increasing by mid morning and continue into the
early evening

* impacts... these winds will make open waters of the lake rough
and hazardous, and may result in high waves which may tip or
swamp smaller craft.

Precautionary/preparedness actions...

Boaters should use extreme caution if venturing onto Fort Peck
Lake. For your personal safety, avoid the open waters. Stay close
to shore or around protected areas.